SL-16 DEB, 22436

Orbit data source: Space-Track

SL-16 DEB, 22436 is space debris in LEO originally from a launch on Fri, 25 Dec 1992 UTC launched from the Tyuratam Missile And Space Complex (TTMTR). Debris objects in space refer to the collection of defunct objects orbiting the Earth. Examples of debris include non-operational satellites, rocket bodies, and fragments generated from explosions, collisions, or faulty payload assembly.

Loading next visibility...
Identifier
22436, 1992-093ED
Orbit
LEO
Country
Flag of CISCIS
Related business
Manufacturer
Unknown
Mission
Spacecraft
Bus & Motor
Unknown
Mass
Unknown
Launch date (UTC)
1992-12-25 (33 years ago)
Launch vehicle
Unknown
Launch site
Tyuratam Missile And Space Complex (TTMTR)
Object type
Payload
Rocket body
Debris
Shape & HBR
Unknown shape, 0.1 m
Radar Cross Section
Small (<0.1 m²)

Expand to show TLE details & history
Last TLE update: 1 day ago

TLE from 1 day ago
0 SL-16 DEB
1 22436U 92093ED  25349.03091616  .00005411  00000-0  69103-3 0  9992
2 22436  71.5049 211.3187 0036930  24.2873  46.3652 14.81380371738195
Epoch: 2025-12-15T00:44Z
TLE epoch observation values (Epoch: 2025-12-15T00:44:31.156Z)
Latitude
63.80476°
Longitude
158.80419°
Altitude
617.645 km
Speed
7.566 km/s
True Right ascension
16h 55m 28s
True Declination
63° 39' 56"
Sunlit
Object was in daylight at epoch
Visualization orbit readout
Latitude
Unknown
Longitude
Unknown
Altitude
Unknown
Speed
Unknown
Apparent Right ascension
Unknown
Apparent Declination
Unknown
Sunlit
N/A
Visualization observer readout
Local Sidereal Time
00:24:21
Azimuth
Unknown
Elevation
Unknown
Doppler factor
Unknown
Orbital elements
Apogee altitude
648.634 km
Perigee altitude
596.926 km
Semi-major axis
7,000.917 km
Eccentricity
0.00369
Inclination
71.5049°
RAAN
211.3187°
Arg. of periapsis
24.2873°
True anomaly
46.67246°
Mean anomaly
46.3652°
Eccentric anomaly
46.51873°
Mean motion
3.70519 °/min
Orbital period
97.16 mins
BSTAR
0.00069103
Loading maneuver chart data...
Computing Atmospheric mass density...
Loading historical data...
Loading historical data...
Loading historical data...
Loading historical data...
Loading historical data...
Loading historical data...
Loading historical data...

Documentation

Showing up to 5 results
|